| time (UTC) | temp F | wind direction | speed MPH | gust MPH | rain 1hr in | rain 24hr in | rain mn in | humidity % | barometer mb |
| 20260504130505 | 52 | 165 | 0.0 | 0.0 | 0.00 | 0.00 | 0.00 | 73 | 1035.8 |
| 20260504110352 | 55 | 12 | 3.0 | 3.0 | 0.00 | 0.00 | 0.00 | 59 | 1034.4 |
| 20260504100309 | 57 | 345 | 2.0 | 3.0 | 0.00 | 0.00 | 0.00 | 54 | 1034.4 |
| 20260504081703 | 56 | 0 | 2.0 | 3.0 | 0.00 | 0.00 | 0.00 | 55 | 1034.9 |
| 20260504081159 | 56 | 3 | 3.0 | 3.0 | 0.00 | 0.00 | 0.00 | 55 | 1034.9 |
| 20260504080655 | 56 | 23 | 1.0 | 1.0 | 0.00 | 0.00 | 0.00 | 55 | 1035.1 |
| 20260504080152 | 56 | 18 | 0.0 | 2.0 | 0.00 | 0.00 | 0.00 | 55 | 1035.0 |
| 20260504070120 | 55 | 47 | 6.0 | 7.0 | 0.00 | 0.00 | 0.00 | 58 | 1034.8 |
| 20260504050508 | 56 | 29 | 3.0 | 4.0 | 0.00 | 0.00 | 0.00 | 56 | 1034.9 |
| 20260504050005 | 57 | 20 | 3.0 | 3.0 | 0.00 | 0.00 | 0.00 | 54 | 1035.1 |
| 20260504045502 | 58 | 90 | 0.0 | 5.0 | 0.00 | 0.00 | 0.00 | 52 | 1035.2 |
| 20260504044957 | 58 | 122 | 3.0 | 4.0 | 0.00 | 0.00 | 0.00 | 52 | 1035.1 |
| 20260504044455 | 58 | 74 | 0.0 | 3.0 | 0.00 | 0.00 | 0.00 | 52 | 1034.9 |
| 20260504043952 | 58 | 98 | 0.0 | 5.0 | 0.00 | 0.00 | 0.00 | 52 | 1034.9 |
| 20260504043449 | 58 | 28 | 6.0 | 7.0 | 0.00 | 0.00 | 0.00 | 52 | 1034.9 |
| 20260504042947 | 58 | 53 | 5.0 | 8.0 | 0.00 | 0.00 | 0.00 | 51 | 1034.8 |
| 20260504042443 | 58 | 40 | 6.0 | 10.0 | 0.00 | 0.00 | 0.00 | 51 | 1034.8 |
| 20260504041940 | 58 | 49 | 3.0 | 5.0 | 0.00 | 0.00 | 0.00 | 52 | 1034.7 |
| 20260504041436 | 59 | 38 | 4.0 | 7.0 | 0.00 | 0.00 | 0.00 | 51 | 1034.8 |
| 20260504040932 | 59 | 39 | 3.0 | 5.0 | 0.00 | 0.00 | 0.00 | 51 | 1034.8 |
| 20260504040430 | 59 | 24 | 2.0 | 7.0 | 0.00 | 0.00 | 0.00 | 51 | 1035.0 |
| 20260504035925 | 59 | 13 | 3.0 | 7.0 | 0.00 | 0.00 | 0.00 | 51 | 1034.8 |
| 20260504035423 | 59 | 40 | 6.0 | 7.0 | 0.00 | 0.00 | 0.00 | 51 | 1034.6 |
| 20260504034920 | 59 | 26 | 3.0 | 8.0 | 0.00 | 0.00 | 0.00 | 51 | 1034.8 |
| 20260504034417 | 59 | 26 | 4.0 | 5.0 | 0.00 | 0.00 | 0.00 | 51 | 1034.7 |
| 20260504033914 | 59 | 8 | 2.0 | 5.0 | 0.00 | 0.00 | 0.00 | 50 | 1034.5 |
| 20260504033412 | 59 | 45 | 5.0 | 5.0 | 0.00 | 0.00 | 0.00 | 51 | 1034.7 |
| 20260504032909 | 58 | 27 | 3.0 | 4.0 | 0.00 | 0.00 | 0.00 | 51 | 1034.5 |
| 20260504032406 | 58 | 11 | 3.0 | 4.0 | 0.00 | 0.00 | 0.00 | 51 | 1034.5 |
| 20260504031902 | 59 | 17 | 3.0 | 5.0 | 0.00 | 0.00 | 0.00 | 51 | 1034.7 |
| 20260504031359 | 58 | 357 | 3.0 | 3.0 | 0.00 | 0.00 | 0.00 | 51 | 1034.7 |
| 20260504030855 | 58 | 9 | 4.0 | 4.0 | 0.00 | 0.00 | 0.00 | 51 | 1034.5 |
| 20260504030353 | 58 | 18 | 3.0 | 5.0 | 0.00 | 0.00 | 0.00 | 51 | 1034.6 |
| 20260504025849 | 58 | 357 | 3.0 | 4.0 | 0.00 | 0.00 | 0.00 | 51 | 1034.4 |
| 20260504025346 | 58 | 26 | 3.0 | 4.0 | 0.00 | 0.00 | 0.00 | 51 | 1034.8 |
| 20260504024843 | 58 | 29 | 3.0 | 5.0 | 0.00 | 0.00 | 0.00 | 51 | 1034.6 |
| 20260504024339 | 58 | 348 | 2.0 | 3.0 | 0.00 | 0.00 | 0.00 | 51 | 1034.7 |
| 20260504023836 | 58 | 21 | 3.0 | 3.0 | 0.00 | 0.00 | 0.00 | 51 | 1034.7 |
| 20260504023333 | 58 | 342 | 2.0 | 3.0 | 0.00 | 0.00 | 0.00 | 51 | 1034.7 |
| 20260504022828 | 58 | 349 | 1.0 | 1.0 | 0.00 | 0.00 | 0.00 | 51 | 1034.6 |
| 20260504022326 | 58 | 344 | 3.0 | 3.0 | 0.00 | 0.00 | 0.00 | 51 | 1034.7 |
| 20260504021822 | 58 | 11 | 1.0 | 3.0 | 0.00 | 0.00 | 0.00 | 51 | 1034.6 |
| 20260504021320 | 58 | 341 | 2.0 | 3.0 | 0.00 | 0.00 | 0.00 | 52 | 1034.5 |
| 20260504020817 | 58 | 355 | 3.0 | 4.0 | 0.00 | 0.00 | 0.00 | 51 | 1034.5 |
| 20260504020313 | 58 | 346 | 3.0 | 3.0 | 0.00 | 0.00 | 0.00 | 51 | 1034.4 |
| 20260504015809 | 58 | 353 | 2.0 | 3.0 | 0.00 | 0.00 | 0.00 | 51 | 1034.3 |
| 20260504015306 | 58 | 347 | 3.0 | 4.0 | 0.00 | 0.00 | 0.00 | 50 | 1034.2 |
| 20260504014802 | 58 | 345 | 3.0 | 3.0 | 0.00 | 0.00 | 0.00 | 51 | 1034.3 |
| 20260504014258 | 59 | 342 | 3.0 | 4.0 | 0.00 | 0.00 | 0.00 | 50 | 1034.4 |
| 20260504013756 | 59 | 0 | 2.0 | 3.0 | 0.00 | 0.00 | 0.00 | 49 | 1034.6 |
| 20260504013253 | 59 | 0 | 2.0 | 3.0 | 0.00 | 0.00 | 0.00 | 49 | 1034.4 |
| 20260504012749 | 59 | 352 | 2.0 | 4.0 | 0.00 | 0.00 | 0.00 | 48 | 1034.4 |
| 20260504012247 | 59 | 6 | 4.0 | 4.0 | 0.00 | 0.00 | 0.00 | 48 | 1034.6 |
| 20260504011744 | 59 | 4 | 4.0 | 4.0 | 0.00 | 0.00 | 0.00 | 49 | 1034.3 |
| 20260504011241 | 59 | 341 | 2.0 | 4.0 | 0.00 | 0.00 | 0.00 | 49 | 1034.4 |
| 20260504010737 | 59 | 353 | 2.0 | 3.0 | 0.00 | 0.00 | 0.00 | 49 | 1034.4 |
| 20260504010232 | 59 | 3 | 2.0 | 3.0 | 0.00 | 0.00 | 0.00 | 49 | 1034.3 |
| 20260504005730 | 59 | 350 | 3.0 | 3.0 | 0.00 | 0.00 | 0.00 | 48 | 1034.4 |
| 20260504005227 | 59 | 350 | 3.0 | 3.0 | 0.00 | 0.00 | 0.00 | 48 | 1034.2 |
| 20260504004724 | 59 | 350 | 3.0 | 3.0 | 0.00 | 0.00 | 0.00 | 49 | 1034.0 |
| 20260504004221 | 59 | 12 | 3.0 | 4.0 | 0.00 | 0.00 | 0.00 | 49 | 1034.2 |
| 20260504003718 | 59 | 6 | 3.0 | 4.0 | 0.00 | 0.00 | 0.00 | 49 | 1034.0 |
| 20260504003215 | 59 | 357 | 3.0 | 4.0 | 0.00 | 0.00 | 0.00 | 51 | 1034.0 |
| 20260504002712 | 60 | 357 | 3.0 | 3.0 | 0.00 | 0.00 | 0.00 | 51 | 1034.0 |
| 20260504002209 | 60 | 0 | 2.0 | 3.0 | 0.00 | 0.00 | 0.00 | 49 | 1034.0 |
| 20260504001707 | 60 | 351 | 2.0 | 3.0 | 0.00 | 0.00 | 0.00 | 49 | 1034.2 |
| 20260504001203 | 61 | 4 | 2.0 | 3.0 | 0.00 | 0.00 | 0.00 | 48 | 1034.3 |
| 20260504000700 | 61 | 4 | 2.0 | 3.0 | 0.00 | 0.00 | 0.00 | 47 | 1034.2 |
| 20260504000157 | 61 | 0 | 2.0 | 3.0 | 0.00 | 0.00 | 0.00 | 46 | 1034.3 |
| 20260503235655 | 61 | 12 | 2.0 | 3.0 | 0.00 | 0.00 | 0.00 | 45 | 1034.4 |
| 20260503235151 | 61 | 20 | 3.0 | 4.0 | 0.00 | 0.00 | 0.00 | 45 | 1034.3 |
| 20260503234649 | 62 | 21 | 3.0 | 5.0 | 0.00 | 0.00 | 0.00 | 43 | 1034.4 |
| 20260503234148 | 62 | 36 | 3.0 | 4.0 | 0.00 | 0.00 | 0.00 | 43 | 1034.4 |
| 20260503233644 | 62 | 12 | 2.0 | 5.0 | 0.00 | 0.00 | 0.00 | 43 | 1034.6 |
| 20260503233139 | 62 | 35 | 5.0 | 5.0 | 0.00 | 0.00 | 0.00 | 42 | 1034.5 |
| 20260503232637 | 62 | 40 | 3.0 | 5.0 | 0.00 | 0.00 | 0.00 | 42 | 1034.5 |
| 20260503232134 | 63 | 65 | 2.0 | 5.0 | 0.00 | 0.00 | 0.00 | 42 | 1034.6 |
| 20260503231632 | 63 | 43 | 4.0 | 4.0 | 0.00 | 0.00 | 0.00 | 40 | 1034.7 |
| 20260503231128 | 64 | 0 | 2.0 | 4.0 | 0.00 | 0.00 | 0.00 | 40 | 1034.9 |
| 20260503230625 | 64 | 99 | 0.0 | 4.0 | 0.00 | 0.00 | 0.00 | 38 | 1034.6 |
| 20260503230122 | 65 | 81 | 0.0 | 4.0 | 0.00 | 0.00 | 0.00 | 38 | 1035.0 |
| 20260503225620 | 67 | 24 | 2.0 | 4.0 | 0.00 | 0.00 | 0.00 | 36 | 1034.8 |
| 20260503225119 | 67 | 16 | 2.0 | 3.0 | 0.00 | 0.00 | 0.00 | 39 | 1034.9 |
| 20260503224617 | 67 | 0 | 0.0 | 6.0 | 0.00 | 0.00 | 0.00 | 37 | 1035.0 |
| 20260503224115 | 68 | 180 | 2.0 | 4.0 | 0.00 | 0.00 | 0.00 | 35 | 1034.9 |
| 20260503223613 | 67 | 24 | 0.0 | 3.0 | 0.00 | 0.00 | 0.00 | 36 | 1034.8 |
| 20260503223108 | 67 | 19 | 0.0 | 5.0 | 0.00 | 0.00 | 0.00 | 35 | 1034.8 |
| 20260503222606 | 68 | 14 | 0.0 | 5.0 | 0.00 | 0.00 | 0.00 | 36 | 1034.8 |
| 20260503222104 | 69 | 90 | 0.0 | 3.0 | 0.00 | 0.00 | 0.00 | 37 | 1035.1 |
| 20260503221602 | 68 | 75 | 1.0 | 5.0 | 0.00 | 0.00 | 0.00 | 38 | 1035.0 |
| 20260503221059 | 66 | 165 | 4.0 | 6.0 | 0.00 | 0.00 | 0.00 | 38 | 1035.0 |
| 20260503220555 | 66 | 143 | 2.0 | 3.0 | 0.00 | 0.00 | 0.00 | 39 | 1034.9 |
| 20260503220052 | 67 | 8 | 6.0 | 6.0 | 0.00 | 0.00 | 0.00 | 37 | 1035.2 |
| 20260503215549 | 67 | 148 | 0.0 | 7.0 | 0.00 | 0.00 | 0.00 | 38 | 1035.2 |
| 20260503215046 | 67 | 18 | 3.0 | 6.0 | 0.00 | 0.00 | 0.00 | 36 | 1035.2 |
| 20260503214544 | 68 | 96 | 0.0 | 6.0 | 0.00 | 0.00 | 0.00 | 37 | 1035.4 |
| 20260503214040 | 67 | 12 | 2.0 | 7.0 | 0.00 | 0.00 | 0.00 | 37 | 1035.4 |
| 20260503213539 | 68 | 6 | 1.0 | 4.0 | 0.00 | 0.00 | 0.00 | 39 | 1035.4 |
| 20260503213035 | 68 | 26 | 2.0 | 5.0 | 0.00 | 0.00 | 0.00 | 36 | 1035.3 |
| 20260503212533 | 68 | 25 | 0.0 | 6.0 | 0.00 | 0.00 | 0.00 | 36 | 1035.4 |
| 20260503212030 | 69 | 20 | 0.0 | 3.0 | 0.00 | 0.00 | 0.00 | 34 | 1035.5 |
| 20260503211527 | 70 | 35 | 4.0 | 4.0 | 0.00 | 0.00 | 0.00 | 35 | 1035.4 |
| 20260503211022 | 67 | 141 | 3.0 | 5.0 | 0.00 | 0.00 | 0.00 | 38 | 1035.4 |
| 20260503210520 | 67 | 14 | 3.0 | 8.0 | 0.00 | 0.00 | 0.00 | 37 | 1035.4 |
| 20260503210015 | 68 | 23 | 3.0 | 3.0 | 0.00 | 0.00 | 0.00 | 36 | 1035.4 |
| 20260503205512 | 68 | 106 | 0.0 | 2.0 | 0.00 | 0.00 | 0.00 | 35 | 1035.5 |
| 20260503205009 | 67 | 163 | 3.0 | 5.0 | 0.00 | 0.00 | 0.00 | 38 | 1035.7 |
| 20260503204506 | 67 | 15 | 0.0 | 6.0 | 0.00 | 0.00 | 0.00 | 34 | 1035.7 |
| 20260503204003 | 67 | 0 | 4.0 | 10.0 | 0.00 | 0.00 | 0.00 | 36 | 1035.7 |
| 20260503203500 | 68 | 33 | 4.0 | 5.0 | 0.00 | 0.00 | 0.00 | 37 | 1035.9 |
| 20260503202956 | 67 | 40 | 2.0 | 5.0 | 0.00 | 0.00 | 0.00 | 40 | 1035.9 |
| 20260503202455 | 67 | 151 | 1.0 | 4.0 | 0.00 | 0.00 | 0.00 | 41 | 1036.1 |
| 20260503201953 | 67 | 180 | 1.0 | 2.0 | 0.00 | 0.00 | 0.00 | 38 | 1036.0 |
| 20260503201450 | 66 | 97 | 0.0 | 3.0 | 0.00 | 0.00 | 0.00 | 38 | 1036.0 |
| 20260503200947 | 67 | 135 | 3.0 | 4.0 | 0.00 | 0.00 | 0.00 | 38 | 1036.4 |
| 20260503200444 | 68 | 166 | 3.0 | 3.0 | 0.00 | 0.00 | 0.00 | 38 | 1036.3 |
| 20260503195940 | 66 | 138 | 3.0 | 4.0 | 0.00 | 0.00 | 0.00 | 40 | 1036.5 |
| 20260503195438 | 68 | 328 | 2.0 | 5.0 | 0.00 | 0.00 | 0.00 | 36 | 1036.3 |
| 20260503194934 | 69 | 90 | 0.0 | 4.0 | 0.00 | 0.00 | 0.00 | 35 | 1036.5 |
| 20260503194431 | 69 | 28 | 3.0 | 3.0 | 0.00 | 0.00 | 0.00 | 38 | 1036.5 |
| 20260503193926 | 64 | 8 | 2.0 | 4.0 | 0.00 | 0.00 | 0.00 | 38 | 1036.6 |
| 20260503193422 | 64 | 166 | 0.0 | 5.0 | 0.00 | 0.00 | 0.00 | 39 | 1036.6 |
| 20260503192917 | 63 | 184 | 2.0 | 6.0 | 0.00 | 0.00 | 0.00 | 39 | 1036.6 |
| 20260503192414 | 65 | 168 | 2.0 | 7.0 | 0.00 | 0.00 | 0.00 | 43 | 1037.0 |
| 20260503191910 | 65 | 72 | 4.0 | 4.0 | 0.00 | 0.00 | 0.00 | 39 | 1036.7 |
| 20260503191408 | 65 | 157 | 0.0 | 2.0 | 0.00 | 0.00 | 0.00 | 39 | 1036.9 |
| 20260503190904 | 64 | 144 | 2.0 | 6.0 | 0.00 | 0.00 | 0.00 | 40 | 1037.0 |
| 20260503190401 | 66 | 154 | 3.0 | 3.0 | 0.00 | 0.00 | 0.00 | 40 | 1037.3 |
| 20260503185858 | 64 | 161 | 4.0 | 6.0 | 0.00 | 0.00 | 0.00 | 40 | 1037.0 |
| 20260503185354 | 66 | 150 | 2.0 | 4.0 | 0.00 | 0.00 | 0.00 | 38 | 1037.0 |
| 20260503184854 | 65 | 68 | 2.0 | 5.0 | 0.00 | 0.00 | 0.00 | 39 | 1037.4 |
| 20260503184350 | 64 | 154 | 4.0 | 5.0 | 0.00 | 0.00 | 0.00 | 43 | 1037.4 |
| 20260503183846 | 65 | 135 | 2.0 | 2.0 | 0.00 | 0.00 | 0.00 | 40 | 1037.1 |
| 20260503183344 | 64 | 3 | 2.0 | 5.0 | 0.00 | 0.00 | 0.00 | 41 | 1037.4 |
| 20260503182841 | 63 | 152 | 2.0 | 3.0 | 0.00 | 0.00 | 0.00 | 45 | 1037.5 |
| 20260503182340 | 63 | 23 | 0.0 | 3.0 | 0.00 | 0.00 | 0.00 | 41 | 1037.4 |
| 20260503181837 | 62 | 165 | 2.0 | 2.0 | 0.00 | 0.00 | 0.00 | 43 | 1037.5 |
| 20260503181333 | 62 | 180 | 0.0 | 3.0 | 0.00 | 0.00 | 0.00 | 43 | 1037.5 |
| 20260503180830 | 61 | 180 | 2.0 | 5.0 | 0.00 | 0.00 | 0.00 | 48 | 1037.6 |
| 20260503180328 | 61 | 198 | 2.0 | 4.0 | 0.00 | 0.00 | 0.00 | 45 | 1037.6 |
| 20260503175824 | 61 | 219 | 0.0 | 5.0 | 0.00 | 0.00 | 0.00 | 45 | 1037.7 |
| 20260503175322 | 61 | 154 | 3.0 | 3.0 | 0.00 | 0.00 | 0.00 | 45 | 1037.7 |
| 20260503174817 | 60 | 8 | 0.0 | 3.0 | 0.00 | 0.00 | 0.00 | 45 | 1037.7 |
| 20260503174316 | 61 | 132 | 2.0 | 3.0 | 0.00 | 0.00 | 0.00 | 47 | 1038.1 |
| 20260503173811 | 59 | 37 | 2.0 | 2.0 | 0.00 | 0.00 | 0.00 | 45 | 1037.8 |
| 20260503173308 | 59 | 153 | 3.0 | 6.0 | 0.00 | 0.00 | 0.00 | 44 | 1038.1 |
| 20260503172805 | 58 | 194 | 2.0 | 3.0 | 0.00 | 0.00 | 0.00 | 44 | 1038.0 |
| 20260503172304 | 58 | 152 | 4.0 | 5.0 | 0.00 | 0.00 | 0.00 | 44 | 1038.4 |
| 20260503171758 | 58 | 192 | 1.0 | 4.0 | 0.00 | 0.00 | 0.00 | 46 | 1038.0 |
| 20260503171255 | 58 | 167 | 3.0 | 3.0 | 0.00 | 0.00 | 0.00 | 51 | 1038.1 |
| 20260503170752 | 58 | 127 | 4.0 | 5.0 | 0.00 | 0.00 | 0.00 | 51 | 1038.4 |
| 20260503170249 | 57 | 188 | 2.0 | 4.0 | 0.00 | 0.00 | 0.00 | 48 | 1038.2 |
| 20260503160211 | 55 | 172 | 0.0 | 2.0 | 0.00 | 0.00 | 0.00 | 49 | 1039.1 |
| 20260503150641 | 52 | 150 | 2.0 | 5.0 | 0.00 | 0.00 | 0.00 | 53 | 1039.4 |
| 20260503150137 | 52 | 173 | 0.0 | 3.0 | 0.00 | 0.00 | 0.00 | 53 | 1039.6 |